1998-067TS (53307 NORAD) Tracking and Keplerian Element Data

This shows tracking and keplerian element data for the satellite.

Feedback or suggestion? Click here.




ElementValue
Catalog53307
Name1998-067TS
Epoch Orbit1051
Epoch Day270.07810582
Epoch Year2022
RAAN190.6367
Inclination51.6398
Eccentricity0.0002398
Argument of Perigee202.9184
Mean Anonmoly157.1701
Mean Motion15.55411014
Decay Rate0.00056278
L11 53307U 98067TS 22270.07810582 .00056278 00000+0 81232-3 0 9998
L22 53307 51.6398 190.6367 0002398 202.9184 157.1701 15.55411014 10518

Live tracking and technical data element details for 1998-067TS (NORAD 53307). 1998-067TS can be tracked NOW for your location showing map with azimuth and elevation plus other details from your city location.

Track the satellite on the map from your city or location and see movement details for azimuth, elevation, latitude, longitude, range, height, and movement on the map or in text.







IsCatalogInMostPopularTable: catalog: 53307, numindb: 2
Update: records affected: 1



GetName: 53307 1998-067TS

Hit Count: updated at: Thu, 29 Sep 2022 10:07:29 GMT